Tracking 31027 objects as of 19-Jul-2025
HD Live streaming from Space Station
objects crossing your sky now

BSAT-3A

Track BSAT-3A now!
BSAT-3A is classified as:


NORAD ID: 32019
Int'l Code: 2007-036B
Perigee: 36,093.6 km
Apogee: 36,132.5 km
Inclination: 0.8 °
Period: 1,452.4 minutes
Semi major axis: 42484 km
RCS: 12.5893 m2 (large)
Launch date: August 14, 2007
Source: Japan (JPN)
Launch site: FRENCH GUIANA (FRGUI)

BSAT-3a, is a 4,365-pound satellite for the Broadcasting Satellite System Corp. of Japan.
Your satellite tracking list
SL-8 R/B
Track 1 satellite(s)




NASA's NSSDC Master Catalog

Two Line Element Set (TLE):
1 32019U 07036B   25199.81815036 -.00000288  00000-0  00000+0 0  9997
2 32019   0.7892  98.6011 0004582  73.5315 205.2427  0.99143407 65708
Source of the keplerian elements: AFSPC